Weather History for KROC - February, 2013

Change the Weather History Date:

Sunday, February 24, 2013

  Actual Average Record
Temperature  
Mean Temperature 32 °F 28 °F  
Max Temperature 33 °F 36 °F 70 °F (1906)
Min Temperature 30 °F 20 °F -9 °F (1889)
Degree Days  
Heating Degree Days 33 37  
Month to date heating degree days 939 936  
Since 1 July heating degree days 4184 4640  
Cooling Degree Days 0 0  
Month to date cooling degree days 0 0  
Year to date cooling degree days 0 0  
Moisture  
Dew Point 24 °F    
Average Humidity 76    
Maximum Humidity 85    
Minimum Humidity 66    
Precipitation  
Precipitation 0.01 in 0.07 in 0.67 in (1962)
Month to date precipitation 1.42 1.64  
Year to date precipitation 2.89 4.05  
Snow  
Snow T in 0.80 in 8.10 in (1962)
Month to date snowfall 23.8 18.5  
Since 1 July snowfall 58.9 75.9  
Snow Depth 0.00 in    
Sea Level Pressure  
Sea Level Pressure 29.94 in    
Wind  
Wind Speed 10 mph (West)    
Max Wind Speed 18 mph    
Max Gust Speed 24 mph    
Visibility 6 miles    
Events Snow    
T = Trace of Precipitation, MM = Missing Value Source: NWS Daily Summary

Daily Weather History Graph

Daily Weather History Graph

Search for Another Location

Airport or City:

Trip Planner

Search our weather history database for the weather conditions in past years. The results will help you decide how hot, cold, wet, or windy it might be!

Date:

Astronomy

Feb. 24, 2013 Rise Set
Actual Time 6:54 AM EST 5:53 PM EST
Civil Twilight 6:25 AM EST 6:22 PM EST
Nautical Twilight 5:52 AM EST 6:55 PM EST
Astronomical Twilight 5:19 AM EST 7:28 PM EST
Moon 5:02 PM EST (2/24) 5:51 AM EST (2/24)
Length of Visible Light 11h 56m
Length of Day
10h 59m
Waxing Gibbous, 99% of the Moon is Illuminated
Feb 24
Waxing Gibbous
Feb 25
Full
Mar 4
Last Quarter
Mar 11
New
Mar 19
First Quarter

Hourly Weather History & Observations

Time (EST) Temp. Windchill Dew Point Humidity Pressure Visibility Wind Dir Wind Speed Gust Speed Precip Events Conditions
12:54 AM 32.0 °F 26.4 °F 23.0 °F 69% 29.89 in 10.0 mi SW 5.8 mph - N/A   Overcast
1:54 AM 32.0 °F - 23.0 °F 69% 29.87 in 10.0 mi Calm Calm - N/A   Overcast
2:54 AM 30.9 °F 26.2 °F 23.0 °F 72% 29.87 in 10.0 mi SW 4.6 mph - N/A   Overcast
3:54 AM 30.9 °F 25.2 °F 23.0 °F 72% 29.87 in 10.0 mi SW 5.8 mph - N/A   Overcast
4:54 AM 30.9 °F 23.5 °F 21.9 °F 69% 29.87 in 10.0 mi West 8.1 mph - N/A   Overcast
5:54 AM 30.9 °F 22.2 °F 21.9 °F 69% 29.88 in 9.0 mi West 10.4 mph - 0.00 in Snow Light Snow
6:22 AM 30.2 °F 21.3 °F 21.2 °F 69% 29.86 in 9.0 mi WSW 10.4 mph - 0.00 in Snow Light Snow
6:54 AM 30.9 °F 22.2 °F 21.9 °F 69% 29.88 in 10.0 mi WSW 10.4 mph - 0.00 in   Overcast
7:54 AM 30.9 °F 22.2 °F 21.9 °F 69% 29.88 in 10.0 mi West 10.4 mph - N/A   Overcast
8:54 AM 30.9 °F 22.2 °F 21.9 °F 69% 29.89 in 10.0 mi West 10.4 mph - N/A   Overcast
9:54 AM 32.0 °F 22.1 °F 23.0 °F 69% 29.89 in 6.0 mi West 13.8 mph - 0.00 in Snow Light Snow
10:09 AM 30.2 °F 19.8 °F 24.8 °F 80% 29.87 in 1.8 mi West 13.8 mph - 0.00 in Snow Light Snow
10:31 AM 30.2 °F 19.8 °F 24.8 °F 80% 29.88 in 2.5 mi West 13.8 mph 18.4 mph 0.00 in Snow Light Snow
10:38 AM 30.2 °F 19.8 °F 24.8 °F 80% 29.88 in 4.0 mi West 13.8 mph - 0.00 in Snow Light Snow
10:54 AM 30.9 °F 19.8 °F 25.0 °F 79% 29.90 in 3.0 mi West 16.1 mph 20.7 mph 0.00 in Snow Light Snow
11:54 AM 32.0 °F 22.5 °F 24.1 °F 73% 29.91 in 5.0 mi West 12.7 mph - 0.00 in Snow Light Snow
12:03 PM 30.2 °F 19.8 °F 24.8 °F 80% 29.89 in 1.8 mi West 13.8 mph - 0.00 in Snow Light Snow
12:33 PM 30.2 °F 21.3 °F 26.6 °F 86% 29.89 in 2.0 mi West 10.4 mph - 0.00 in Snow Light Snow
12:49 PM 32.0 °F 23.6 °F 24.8 °F 75% 29.89 in 3.0 mi West 10.4 mph - 0.01 in Snow Light Snow
12:54 PM 33.1 °F 24.4 °F 24.1 °F 70% 29.91 in 6.0 mi West 11.5 mph 19.6 mph 0.01 in Snow Light Snow
1:54 PM 32.0 °F 21.6 °F 23.0 °F 69% 29.91 in 7.0 mi West 15.0 mph - 0.00 in Snow Light Snow
2:54 PM 32.0 °F 22.5 °F 24.1 °F 73% 29.93 in 6.0 mi West 12.7 mph 23.0 mph 0.00 in Snow Light Snow
3:54 PM 33.1 °F 23.4 °F 23.0 °F 66% 29.95 in 10.0 mi WNW 13.8 mph 21.9 mph 0.00 in Snow Light Snow
4:05 PM 32.0 °F 21.2 °F 24.8 °F 75% 29.93 in 5.0 mi West 16.1 mph 21.9 mph 0.00 in Snow Light Snow
4:21 PM 30.2 °F 19.8 °F 24.8 °F 80% 29.94 in 2.0 mi West 13.8 mph - 0.00 in Snow Light Snow
4:48 PM 30.2 °F 21.9 °F 26.6 °F 86% 29.95 in 4.0 mi West 9.2 mph - 0.00 in Snow Light Snow
4:54 PM 30.9 °F 20.2 °F 26.1 °F 82% 29.97 in 4.0 mi West 15.0 mph 20.7 mph 0.00 in Snow Light Snow
5:32 PM 30.2 °F 20.8 °F 26.6 °F 86% 29.97 in 2.0 mi West 11.5 mph - 0.00 in Snow Light Snow
5:54 PM 30.0 °F 22.4 °F 26.1 °F 85% 29.99 in 6.0 mi West 8.1 mph - 0.00 in Snow Light Snow
6:54 PM 30.9 °F 22.2 °F 26.1 °F 82% 30.02 in 6.0 mi West 10.4 mph - 0.00 in Snow Light Snow
7:08 PM 30.2 °F 21.3 °F 26.6 °F 86% 30.01 in 2.0 mi West 10.4 mph - 0.00 in Snow Light Snow
7:28 PM 30.2 °F 21.9 °F 26.6 °F 86% 30.01 in 5.0 mi West 9.2 mph - 0.00 in Snow Light Snow
7:54 PM 30.9 °F 22.8 °F 27.0 °F 85% 30.04 in 7.0 mi WSW 9.2 mph - 0.00 in Snow Light Snow
8:54 PM 32.0 °F 22.5 °F 26.1 °F 79% 30.06 in 9.0 mi West 12.7 mph - 0.00 in Snow Light Snow
9:54 PM 32.0 °F 23.6 °F 26.1 °F 79% 30.06 in 6.0 mi West 10.4 mph - 0.00 in Snow Light Snow
10:17 PM 32.0 °F 22.5 °F 26.6 °F 80% 30.04 in 8.0 mi West 12.7 mph - 0.00 in Snow Light Snow
10:54 PM 32.0 °F 23.6 °F 25.0 °F 75% 30.06 in 9.0 mi West 10.4 mph - 0.00 in   Overcast
11:54 PM 32.0 °F 23.6 °F 25.0 °F 75% 30.07 in 10.0 mi West 10.4 mph - N/A   Overcast